Location: N�rnberg
(49.4471°N, 11.0632°E)
Time: 21:04:51
(UTC+02:00)

AO-27 - Visible Passes

Search period start: 18 April 2026 00:00
Search period end: 28 April 2026 00:00
Orbit: 783 x 794 km, 98.7° (Epoch: 18 April)

Date Brightness Start Highest point End Pass type
(mag) Time Alt. Az. Time Alt. Az. Time Alt. Az.
18 Apr 9.4 20:47:23 10° E 20:50:33 17° NE 20:53:44 10° NNE visible
18 Apr 7.6 22:26:52 34° SSE 22:29:15 86° ENE 22:34:32 10° NNW visible
19 Apr 9.9 00:07:33 13° WSW 00:09:24 15° W 00:12:24 10° NW visible
19 Apr 8.0 21:56:28 24° SE 21:59:23 50° ENE 22:04:27 10° N visible
19 Apr 9.3 23:37:09 21° SW 23:39:05 27° W 23:43:29 10° NW visible
20 Apr 8.7 21:26:04 14° ESE 21:29:39 30° ENE 21:34:11 10° N visible
20 Apr 8.4 23:06:45 30° SSW 23:08:55 46° W 23:13:58 10° NNW visible
21 Apr 9.3 20:56:27 10° E 21:00:02 19° NE 21:03:38 10° NNE visible
21 Apr 7.7 22:36:21 32° S 22:38:53 81° WSW 22:44:09 10° NNW visible
22 Apr 10.1 00:17:02 10° WSW 00:19:10 13° W 00:21:23 10° WNW visible
22 Apr 7.8 22:05:57 24° SE 22:08:58 60° ENE 22:14:08 10° N visible
22 Apr 9.5 23:46:38 17° SW 23:48:48 22° W 23:52:53 10° NW visible
23 Apr 8.5 21:35:32 16° ESE 21:39:11 35° ENE 21:43:55 10° N visible
23 Apr 8.7 23:16:14 25° SSW 23:18:35 39° W 23:23:29 10° NNW visible
24 Apr 9.1 21:05:37 10° ESE 21:09:32 22° ENE 21:13:29 10° N visible
24 Apr 7.9 22:45:50 29° S 22:48:31 68° WSW 22:53:45 10° NNW visible
25 Apr 10.2 00:28:22 10° W 00:28:57 10° W 00:29:31 10° WNW visible
25 Apr 7.7 22:15:26 24° SSE 22:18:34 71° ENE 22:23:47 10° N visible
25 Apr 9.7 23:56:07 14° WSW 23:58:32 19° W 00:02:12 10° NW visible
26 Apr 8.3 21:45:02 17° SE 21:48:44 42° ENE 21:53:38 10° N visible
26 Apr 9.0 23:25:43 21° SW 23:28:16 32° W 23:32:59 10° NNW visible
27 Apr 9.0 21:14:50 10° ESE 21:19:03 26° ENE 21:23:17 10° N visible
27 Apr 8.1 22:55:19 26° S 22:58:09 57° W 23:03:20 10° NNW visible
